Location: Black Creek
(40.9000°S, 175.5500°E)
Time: 04:47:07
(UTC+00:00)

ISS - Visible Passes

Search period start: 07 October 2024 00:00
Search period end: 17 October 2024 00:00
Orbit: 412 x 425 km, 51.6° (Epoch: 07 October)

Date Brightness Start Highest point End Pass type
(mag) Time Alt. Az. Time Alt. Az. Time Alt. Az.
07 Oct -2.8 15:37:42 44° S 15:38:04 46° SSE 15:41:23 10° ENE visible
07 Oct -2.3 17:11:57 10° W 17:14:40 22° NW 17:17:21 10° N visible
08 Oct -0.6 14:52:44 13° E 14:52:44 13° E 14:53:16 10° E visible
08 Oct -3.2 16:25:45 27° W 16:26:58 37° NW 16:30:08 10° NNE visible
09 Oct -1.9 15:41:06 23° NE 15:41:06 23° NE 15:42:32 10° NE visible
10 Oct -1.8 08:18:17 10° NNW 08:19:34 20° NNW 08:19:34 20° NNW visible
11 Oct -2.7 07:30:47 10° NNW 07:33:43 26° NE 07:35:17 19° E visible
11 Oct -1.2 09:07:06 10° W 09:08:19 19° W 09:08:19 19° W visible
12 Oct -3.3 08:18:51 10° WNW 08:22:15 63° SW 08:23:34 34° SE visible
13 Oct -3.8 07:30:43 10° NW 07:34:09 78° NE 07:37:37 10° SE visible
13 Oct -1.3 09:08:29 10° WSW 09:11:15 22° SSW 09:11:20 22° SSW visible
14 Oct -1.7 08:19:51 10° W 08:22:55 29° SSW 08:25:45 11° SE visible
14 Oct -0.1 09:58:35 10° SW 09:58:42 10° SW 09:58:42 10° SW visible
15 Oct -2.4 07:31:18 10° WNW 07:34:34 41° SSW 07:37:53 10° SE visible
15 Oct -0.9 09:09:51 10° SW 09:12:02 16° S 09:12:48 15° S visible
16 Oct -1.0 08:21:01 10° WSW 08:23:30 18° SSW 08:26:00 10° SSE visible
16 Oct -0.2 09:59:19 10° SSW 09:59:35 11° SSW 09:59:35 11° SSW visible
